Wetterdaten: Freitag, 09.08.2013
Datum Zeit Temp. Auen Feucht Auen Luftdruck Regen Richtung Richtung Windben
09.08.2013 00:00 18,8 C 88 % 1016,6 hPa 0,0 mm W 271 1,6 km/h (1 Bft)
09.08.2013 00:05 18,6 C 89 % 1016,6 hPa 0,0 mm W 271 0,0 km/h (0 Bft)
09.08.2013 00:10 18,4 C 89 % 1016,8 hPa 0,0 mm W 271 0,0 km/h (0 Bft)
09.08.2013 00:15 18,4 C 89 % 1016,9 hPa 0,0 mm W 271 1,6 km/h (1 Bft)
09.08.2013 00:20 18,2 C 89 % 1016,8 hPa 0,0 mm W 271 3,2 km/h (1 Bft)
09.08.2013 00:25 18,1 C 89 % 1016,8 hPa 0,0 mm W 271 3,2 km/h (1 Bft)
09.08.2013 00:30 18,2 C 90 % 1016,8 hPa 0,0 mm W 275 4,8 km/h (1 Bft)
09.08.2013 00:35 18,2 C 90 % 1016,8 hPa 0,0 mm W 275 3,2 km/h (1 Bft)
09.08.2013 00:40 18,3 C 90 % 1016,8 hPa 0,0 mm W 275 1,6 km/h (1 Bft)
09.08.2013 00:45 18,3 C 90 % 1016,8 hPa 0,0 mm W 275 1,6 km/h (1 Bft)
09.08.2013 00:50 18,2 C 90 % 1016,7 hPa 0,0 mm W 275 0,0 km/h (0 Bft)
09.08.2013 00:55 18,1 C 89 % 1016,9 hPa 0,0 mm W 275 1,6 km/h (1 Bft)
09.08.2013 01:00 18,0 C 90 % 1016,9 hPa 0,0 mm W 275 1,6 km/h (1 Bft)
09.08.2013 01:05 18,1 C 90 % 1016,9 hPa 0,0 mm W 275 0,0 km/h (0 Bft)
09.08.2013 01:10 18,2 C 90 % 1017,0 hPa 0,0 mm W 275 1,6 km/h (1 Bft)
09.08.2013 01:15 18,4 C 90 % 1017,0 hPa 0,0 mm W 275 3,2 km/h (1 Bft)
09.08.2013 01:20 18,6 C 90 % 1016,9 hPa 0,0 mm W 270 3,2 km/h (1 Bft)
09.08.2013 01:25 18,7 C 89 % 1016,9 hPa 0,0 mm W 270 3,2 km/h (1 Bft)
09.08.2013 01:30 18,8 C 89 % 1016,9 hPa 0,0 mm W 275 1,6 km/h (1 Bft)
09.08.2013 01:35 18,8 C 89 % 1016,9 hPa 0,0 mm W 275 1,6 km/h (1 Bft)
09.08.2013 01:40 18,9 C 89 % 1016,9 hPa 0,0 mm W 275 0,0 km/h (0 Bft)
09.08.2013 01:45 18,9 C 89 % 1017,0 hPa 0,0 mm W 275 0,0 km/h (0 Bft)
09.08.2013 01:50 18,9 C 89 % 1017,0 hPa 0,0 mm W 275 0,0 km/h (0 Bft)
09.08.2013 01:55 19,0 C 89 % 1017,0 hPa 0,0 mm W 275 0,0 km/h (0 Bft)
09.08.2013 02:00 18,9 C 89 % 1017,1 hPa 0,0 mm W 275 0,0 km/h (0 Bft)
09.08.2013 02:05 18,8 C 90 % 1017,0 hPa 0,0 mm W 275 0,0 km/h (0 Bft)
09.08.2013 02:10 18,8 C 90 % 1017,2 hPa 0,0 mm W 275 0,0 km/h (0 Bft)
09.08.2013 02:15 18,8 C 90 % 1017,2 hPa 0,0 mm W 275 0,0 km/h (0 Bft)
09.08.2013 02:20 18,9 C 89 % 1017,2 hPa 0,0 mm W 275 0,0 km/h (0 Bft)
09.08.2013 02:25 19,0 C 90 % 1017,2 hPa 0,0 mm W 275 0,0 km/h (0 Bft)
09.08.2013 02:30 19,1 C 90 % 1017,3 hPa 0,0 mm W 275 0,0 km/h (0 Bft)
09.08.2013 02:35 19,1 C 89 % 1017,2 hPa 0,0 mm W 275 0,0 km/h (0 Bft)
09.08.2013 02:40 19,3 C 89 % 1017,2 hPa 0,0 mm W 275 1,6 km/h (1 Bft)
09.08.2013 02:45 19,3 C 89 % 1017,2 hPa 0,0 mm W 275 0,0 km/h (0 Bft)
09.08.2013 02:50 19,4 C 89 % 1017,3 hPa 0,0 mm W 275 0,0 km/h (0 Bft)
09.08.2013 02:55 19,4 C 88 % 1017,4 hPa 0,0 mm W 275 0,0 km/h (0 Bft)
09.08.2013 03:00 19,4 C 89 % 1017,3 hPa 0,0 mm W 275 0,0 km/h (0 Bft)
09.08.2013 03:05 19,4 C 89 % 1017,3 hPa 0,0 mm W 275 0,0 km/h (0 Bft)
09.08.2013 03:10 19,4 C 89 % 1017,2 hPa 0,0 mm W 275 0,0 km/h (0 Bft)
09.08.2013 03:15 19,4 C 89 % 1017,2 hPa 0,0 mm W 275 0,0 km/h (0 Bft)
09.08.2013 03:20 19,4 C 89 % 1017,3 hPa 0,0 mm W 275 1,6 km/h (1 Bft)
09.08.2013 03:25 19,4 C 89 % 1017,4 hPa 0,0 mm W 275 1,6 km/h (1 Bft)
09.08.2013 03:30 19,5 C 88 % 1017,4 hPa 0,0 mm W 275 1,6 km/h (1 Bft)
09.08.2013 03:35 19,5 C 88 % 1017,4 hPa 0,0 mm W 275 1,6 km/h (1 Bft)
09.08.2013 03:40 19,6 C 88 % 1017,3 hPa 0,0 mm W 275 3,2 km/h (1 Bft)
09.08.2013 03:45 19,6 C 88 % 1017,3 hPa 0,0 mm W 275 1,6 km/h (1 Bft)
09.08.2013 03:50 19,5 C 88 % 1017,3 hPa 0,0 mm W 275 3,2 km/h (1 Bft)
09.08.2013 03:55 19,5 C 88 % 1017,3 hPa 0,0 mm W 275 3,2 km/h (1 Bft)
09.08.2013 04:00 19,6 C 87 % 1017,2 hPa 0,0 mm W 275 3,2 km/h (1 Bft)
09.08.2013 04:05 19,6 C 87 % 1017,2 hPa 0,0 mm W 275 1,6 km/h (1 Bft)
09.08.2013 04:10 19,6 C 87 % 1017,1 hPa 0,0 mm W 275 1,6 km/h (1 Bft)
09.08.2013 04:15 19,6 C 87 % 1017,1 hPa 0,0 mm W 275 1,6 km/h (1 Bft)
09.08.2013 04:20 19,6 C 87 % 1017,0 hPa 0,0 mm W 275 1,6 km/h (1 Bft)
09.08.2013 04:25 19,6 C 87 % 1017,1 hPa 0,0 mm W 275 3,2 km/h (1 Bft)
09.08.2013 04:30 19,6 C 87 % 1017,3 hPa 0,0 mm W 275 3,2 km/h (1 Bft)
09.08.2013 04:35 19,6 C 87 % 1017,3 hPa 0,0 mm W 275 4,8 km/h (1 Bft)
09.08.2013 04:40 19,6 C 87 % 1017,3 hPa 0,0 mm W 275 1,6 km/h (1 Bft)
09.08.2013 04:45 19,6 C 88 % 1017,3 hPa 0,0 mm W 275 1,6 km/h (1 Bft)
09.08.2013 04:50 19,5 C 88 % 1017,2 hPa 0,0 mm W 275 0,0 km/h (0 Bft)
09.08.2013 04:55 19,4 C 88 % 1017,1 hPa 0,0 mm W 275 1,6 km/h (1 Bft)
09.08.2013 05:00 19,3 C 88 % 1017,1 hPa 0,0 mm W 275 0,0 km/h (0 Bft)
09.08.2013 05:05 19,3 C 88 % 1017,1 hPa 0,0 mm W 275 1,6 km/h (1 Bft)
09.08.2013 05:10 19,2 C 88 % 1017,0 hPa 0,0 mm W 275 0,0 km/h (0 Bft)
09.08.2013 05:15 19,2 C 89 % 1017,0 hPa 0,0 mm W 275 0,0 km/h (0 Bft)
09.08.2013 05:20 19,0 C 89 % 1017,1 hPa 0,0 mm W 275 0,0 km/h (0 Bft)
09.08.2013 05:25 18,9 C 89 % 1017,2 hPa 0,0 mm W 275 1,6 km/h (1 Bft)
09.08.2013 05:30 19,1 C 89 % 1017,0 hPa 0,0 mm W 275 1,6 km/h (1 Bft)
09.08.2013 05:35 19,0 C 89 % 1017,1 hPa 0,0 mm W 275 0,0 km/h (0 Bft)
09.08.2013 05:40 18,8 C 89 % 1017,2 hPa 0,0 mm W 275 1,6 km/h (1 Bft)
09.08.2013 05:45 18,9 C 89 % 1017,2 hPa 0,0 mm W 275 1,6 km/h (1 Bft)
09.08.2013 05:50 19,1 C 89 % 1017,2 hPa 0,0 mm W 275 0,0 km/h (0 Bft)
09.08.2013 05:55 19,2 C 88 % 1017,2 hPa 0,0 mm W 275 1,6 km/h (1 Bft)
09.08.2013 06:00 19,2 C 88 % 1017,2 hPa 0,0 mm W 275 0,0 km/h (0 Bft)
09.08.2013 06:05 19,2 C 88 % 1017,0 hPa 0,0 mm W 275 1,6 km/h (1 Bft)
09.08.2013 06:10 19,2 C 88 % 1017,0 hPa 0,0 mm W 275 1,6 km/h (1 Bft)
09.08.2013 06:15 19,1 C 88 % 1017,1 hPa 0,0 mm W 275 0,0 km/h (0 Bft)
09.08.2013 06:20 18,9 C 89 % 1017,1 hPa 0,0 mm W 275 0,0 km/h (0 Bft)
09.08.2013 06:25 18,9 C 90 % 1017,1 hPa 0,0 mm W 275 0,0 km/h (0 Bft)
09.08.2013 06:30 19,0 C 89 % 1017,0 hPa 0,0 mm W 275 1,6 km/h (1 Bft)
09.08.2013 06:35 19,1 C 89 % 1016,9 hPa 0,0 mm W 275 1,6 km/h (1 Bft)
09.08.2013 06:40 19,1 C 89 % 1016,9 hPa 0,0 mm W 275 1,6 km/h (1 Bft)
09.08.2013 06:45 19,1 C 89 % 1017,0 hPa 0,0 mm W 275 4,8 km/h (1 Bft)
09.08.2013 06:50 19,1 C 89 % 1017,1 hPa 0,0 mm W 273 6,4 km/h (2 Bft)
09.08.2013 06:55 19,2 C 89 % 1017,3 hPa 0,0 mm W 273 3,2 km/h (1 Bft)
09.08.2013 07:00 19,1 C 89 % 1017,3 hPa 0,0 mm W 273 0,0 km/h (0 Bft)
09.08.2013 07:05 19,2 C 88 % 1017,3 hPa 0,0 mm W 273 1,6 km/h (1 Bft)
09.08.2013 07:10 19,3 C 88 % 1017,3 hPa 0,0 mm W 273 1,6 km/h (1 Bft)
09.08.2013 07:15 19,4 C 88 % 1016,9 hPa 0,0 mm W 273 1,6 km/h (1 Bft)
09.08.2013 07:20 19,4 C 88 % 1016,8 hPa 0,0 mm W 273 4,8 km/h (1 Bft)
09.08.2013 07:25 19,6 C 88 % 1016,9 hPa 0,0 mm W 273 3,2 km/h (1 Bft)
09.08.2013 07:30 19,7 C 88 % 1016,8 hPa 0,0 mm W 273 3,2 km/h (1 Bft)
09.08.2013 07:35 19,7 C 87 % 1016,7 hPa 0,0 mm W 273 3,2 km/h (1 Bft)
09.08.2013 07:40 19,7 C 87 % 1016,6 hPa 0,0 mm W 273 3,2 km/h (1 Bft)
09.08.2013 07:45 19,7 C 87 % 1016,7 hPa 0,0 mm W 280 6,4 km/h (2 Bft)
09.08.2013 07:50 19,8 C 87 % 1016,9 hPa 0,0 mm W-NW 289 4,8 km/h (1 Bft)
09.08.2013 07:55 19,8 C 86 % 1016,9 hPa 0,0 mm W 273 4,8 km/h (1 Bft)
09.08.2013 08:00 19,9 C 86 % 1017,0 hPa 0,0 mm W 272 3,2 km/h (1 Bft)
09.08.2013 08:05 20,0 C 86 % 1017,1 hPa 0,0 mm W 271 6,4 km/h (2 Bft)
09.08.2013 08:10 20,1 C 85 % 1017,1 hPa 0,0 mm W 273 4,8 km/h (1 Bft)
09.08.2013 08:15 20,3 C 85 % 1017,0 hPa 0,0 mm W 271 4,8 km/h (1 Bft)
09.08.2013 08:20 20,4 C 84 % 1016,9 hPa 0,0 mm W 277 6,4 km/h (2 Bft)
09.08.2013 08:25 20,4 C 83 % 1016,9 hPa 0,0 mm W 265 6,4 km/h (2 Bft)
09.08.2013 08:30 20,5 C 84 % 1016,9 hPa 0,0 mm W 265 3,2 km/h (1 Bft)
09.08.2013 08:35 20,4 C 85 % 1017,1 hPa 0,0 mm W 265 3,2 km/h (1 Bft)
09.08.2013 08:40 20,4 C 85 % 1017,1 hPa 0,0 mm W 280 4,8 km/h (1 Bft)
09.08.2013 08:45 20,4 C 85 % 1016,9 hPa 0,0 mm W-NW 286 4,8 km/h (1 Bft)
09.08.2013 08:50 20,5 C 84 % 1016,9 hPa 0,0 mm W 269 4,8 km/h (1 Bft)
09.08.2013 08:55 20,6 C 84 % 1016,8 hPa 0,0 mm W 270 4,8 km/h (1 Bft)
09.08.2013 09:00 20,7 C 84 % 1016,8 hPa 0,0 mm W 274 8,0 km/h (2 Bft)
09.08.2013 09:05 20,7 C 83 % 1016,9 hPa 0,0 mm W 268 8,0 km/h (2 Bft)
09.08.2013 09:10 20,6 C 84 % 1017,0 hPa 0,0 mm W 260 4,8 km/h (1 Bft)
09.08.2013 09:15 20,6 C 84 % 1017,0 hPa 0,0 mm W 260 0,0 km/h (0 Bft)
09.08.2013 09:20 20,8 C 84 % 1017,0 hPa 0,0 mm W-NW 293 3,2 km/h (1 Bft)
09.08.2013 09:25 20,8 C 84 % 1017,0 hPa 0,0 mm W-NW 288 4,8 km/h (1 Bft)
09.08.2013 09:30 20,9 C 82 % 1017,0 hPa 0,0 mm W-NW 288 3,2 km/h (1 Bft)
09.08.2013 09:35 20,8 C 82 % 1017,0 hPa 0,0 mm W-NW 288 3,2 km/h (1 Bft)
09.08.2013 09:40 20,8 C 82 % 1017,1 hPa 0,0 mm W-NW 288 4,8 km/h (1 Bft)
09.08.2013 09:45 20,7 C 83 % 1017,4 hPa 0,0 mm W 273 3,2 km/h (1 Bft)
09.08.2013 09:50 20,6 C 83 % 1017,4 hPa 0,0 mm W 272 4,8 km/h (1 Bft)
09.08.2013 09:55 20,6 C 83 % 1017,3 hPa 0,0 mm W-NW 286 4,8 km/h (1 Bft)
09.08.2013 10:00 20,5 C 83 % 1017,1 hPa 0,0 mm W 271 6,4 km/h (2 Bft)
09.08.2013 10:05 20,3 C 84 % 1016,8 hPa 0,0 mm W 268 4,8 km/h (1 Bft)
09.08.2013 10:10 20,1 C 85 % 1016,7 hPa 0,0 mm W-SW 258 6,4 km/h (2 Bft)
09.08.2013 10:15 19,9 C 86 % 1016,8 hPa 0,0 mm W-SW 255 6,4 km/h (2 Bft)
09.08.2013 10:20 19,8 C 87 % 1016,7 hPa 0,0 mm W 273 4,8 km/h (1 Bft)
09.08.2013 10:25 19,7 C 88 % 1017,1 hPa 0,0 mm W-NW 300 4,8 km/h (1 Bft)
09.08.2013 10:30 19,6 C 88 % 1017,2 hPa 0,0 mm W 269 11,3 km/h (2 Bft)
09.08.2013 10:35 19,6 C 89 % 1017,5 hPa 0,0 mm W 274 11,3 km/h (2 Bft)
09.08.2013 10:40 19,4 C 89 % 1017,4 hPa 0,0 mm W 269 8,0 km/h (2 Bft)
09.08.2013 10:45 19,4 C 90 % 1017,3 hPa 0,2 mm W-SW 257 6,4 km/h (2 Bft)
09.08.2013 10:50 19,3 C 90 % 1017,3 hPa 0,0 mm W 275 6,4 km/h (2 Bft)
09.08.2013 10:55 19,3 C 90 % 1017,2 hPa 0,2 mm W 275 3,2 km/h (1 Bft)
09.08.2013 11:00 19,3 C 91 % 1017,2 hPa 0,4 mm W 280 3,2 km/h (1 Bft)
09.08.2013 11:05 19,4 C 91 % 1017,0 hPa 0,2 mm W 264 4,8 km/h (1 Bft)
09.08.2013 11:10 19,4 C 91 % 1017,0 hPa 0,0 mm W 276 4,8 km/h (1 Bft)
09.08.2013 11:15 19,4 C 91 % 1016,9 hPa 0,0 mm W 280 6,4 km/h (2 Bft)
09.08.2013 11:20 19,4 C 91 % 1016,7 hPa 0,0 mm W 267 6,4 km/h (2 Bft)
09.08.2013 11:25 19,4 C 91 % 1016,6 hPa 0,0 mm W 270 3,2 km/h (1 Bft)
09.08.2013 11:30 19,5 C 91 % 1016,6 hPa 0,0 mm W-NW 283 6,4 km/h (2 Bft)
09.08.2013 11:35 19,6 C 91 % 1016,6 hPa 0,0 mm W 273 8,0 km/h (2 Bft)
09.08.2013 11:40 19,6 C 91 % 1016,6 hPa 0,0 mm W 277 8,0 km/h (2 Bft)
09.08.2013 11:45 19,6 C 91 % 1016,5 hPa 0,0 mm W-NW 288 9,7 km/h (2 Bft)
09.08.2013 11:50 19,7 C 90 % 1016,5 hPa 0,0 mm W 271 9,7 km/h (2 Bft)
09.08.2013 11:55 19,8 C 89 % 1016,4 hPa 0,0 mm W 278 9,7 km/h (2 Bft)
09.08.2013 12:00 20,0 C 89 % 1016,3 hPa 0,0 mm W 279 6,4 km/h (2 Bft)
09.08.2013 12:05 20,3 C 89 % 1016,4 hPa 0,0 mm W 280 6,4 km/h (2 Bft)
09.08.2013 12:10 20,2 C 87 % 1016,6 hPa 0,0 mm W-SW 257 9,7 km/h (2 Bft)
09.08.2013 12:15 20,2 C 87 % 1016,8 hPa 0,0 mm W 266 9,7 km/h (2 Bft)
09.08.2013 12:20 20,2 C 86 % 1016,8 hPa 0,0 mm W-NW 291 8,0 km/h (2 Bft)
09.08.2013 12:25 20,2 C 86 % 1016,9 hPa 0,0 mm W-SW 251 8,0 km/h (2 Bft)
09.08.2013 12:30 20,6 C 87 % 1017,0 hPa 0,0 mm W-NW 296 8,0 km/h (2 Bft)
09.08.2013 12:35 20,8 C 86 % 1016,9 hPa 0,0 mm W 265 6,4 km/h (2 Bft)
09.08.2013 12:40 21,0 C 85 % 1016,9 hPa 0,0 mm W 267 6,4 km/h (2 Bft)
09.08.2013 12:45 21,1 C 85 % 1016,9 hPa 0,0 mm W 267 4,8 km/h (1 Bft)
09.08.2013 12:50 21,1 C 84 % 1017,0 hPa 0,0 mm W 269 6,4 km/h (2 Bft)
09.08.2013 12:55 20,9 C 84 % 1017,0 hPa 0,0 mm W 268 4,8 km/h (1 Bft)
09.08.2013 13:00 20,9 C 84 % 1017,1 hPa 0,0 mm W 270 8,0 km/h (2 Bft)
09.08.2013 13:05 20,7 C 83 % 1017,0 hPa 0,0 mm W 271 11,3 km/h (2 Bft)
09.08.2013 13:10 20,5 C 83 % 1017,0 hPa 0,0 mm W 260 12,9 km/h (3 Bft)
09.08.2013 13:15 20,3 C 84 % 1016,9 hPa 0,0 mm W 271 11,3 km/h (2 Bft)
09.08.2013 13:20 20,3 C 85 % 1016,7 hPa 0,0 mm W 271 12,9 km/h (3 Bft)
09.08.2013 13:25 20,8 C 84 % 1016,5 hPa 0,0 mm W-SW 254 6,4 km/h (2 Bft)
09.08.2013 13:30 21,1 C 82 % 1016,4 hPa 0,0 mm W 262 9,7 km/h (2 Bft)
09.08.2013 13:35 20,9 C 82 % 1016,3 hPa 0,0 mm W 262 8,0 km/h (2 Bft)
09.08.2013 13:40 20,6 C 84 % 1016,2 hPa 0,0 mm W 267 4,8 km/h (1 Bft)
09.08.2013 13:45 20,8 C 83 % 1016,3 hPa 0,0 mm W 265 6,4 km/h (2 Bft)
09.08.2013 13:50 20,7 C 82 % 1016,0 hPa 0,0 mm W 279 6,4 km/h (2 Bft)
09.08.2013 13:55 20,7 C 82 % 1015,9 hPa 0,0 mm W 281 6,4 km/h (2 Bft)
09.08.2013 14:00 20,4 C 82 % 1015,9 hPa 0,0 mm W 279 6,4 km/h (2 Bft)
09.08.2013 14:05 20,4 C 83 % 1016,0 hPa 0,0 mm W 265 1,6 km/h (1 Bft)
09.08.2013 14:10 20,8 C 84 % 1015,8 hPa 0,0 mm W-NW 284 6,4 km/h (2 Bft)
09.08.2013 14:15 21,1 C 82 % 1015,6 hPa 0,0 mm W 262 4,8 km/h (1 Bft)
09.08.2013 14:20 21,1 C 81 % 1015,7 hPa 0,0 mm W 262 8,0 km/h (2 Bft)
09.08.2013 14:25 21,0 C 81 % 1015,8 hPa 0,0 mm W 267 11,3 km/h (2 Bft)
09.08.2013 14:30 20,7 C 83 % 1015,8 hPa 0,0 mm W-SW 256 11,3 km/h (2 Bft)
09.08.2013 14:35 20,5 C 83 % 1015,4 hPa 0,0 mm W-NW 288 12,9 km/h (3 Bft)
09.08.2013 14:40 20,3 C 85 % 1015,9 hPa 0,0 mm W 269 14,5 km/h (3 Bft)
09.08.2013 14:45 20,1 C 85 % 1016,3 hPa 0,0 mm W-NW 285 11,3 km/h (2 Bft)
09.08.2013 14:50 20,0 C 86 % 1016,3 hPa 0,0 mm W-NW 284 9,7 km/h (2 Bft)
09.08.2013 14:55 20,3 C 85 % 1016,2 hPa 0,0 mm W 269 11,3 km/h (2 Bft)
09.08.2013 15:00 20,6 C 84 % 1016,1 hPa 0,0 mm W 271 9,7 km/h (2 Bft)
09.08.2013 15:05 20,8 C 83 % 1016,3 hPa 0,0 mm W-SW 253 8,0 km/h (2 Bft)
09.08.2013 15:10 20,7 C 83 % 1016,5 hPa 0,0 mm W 260 11,3 km/h (2 Bft)
09.08.2013 15:15 20,6 C 84 % 1016,5 hPa 0,0 mm W 271 8,0 km/h (2 Bft)
09.08.2013 15:20 20,2 C 84 % 1016,4 hPa 0,0 mm SW 220 3,2 km/h (1 Bft)
09.08.2013 15:25 20,1 C 85 % 1016,4 hPa 0,0 mm W 260 3,2 km/h (1 Bft)
09.08.2013 15:30 20,3 C 83 % 1016,3 hPa 0,0 mm W 263 3,2 km/h (1 Bft)
09.08.2013 15:35 20,6 C 83 % 1016,2 hPa 0,0 mm W 271 4,8 km/h (1 Bft)
09.08.2013 15:40 20,6 C 84 % 1016,2 hPa 0,0 mm W 273 3,2 km/h (1 Bft)
09.08.2013 15:45 20,3 C 85 % 1016,1 hPa 0,2 mm S 188 3,2 km/h (1 Bft)
09.08.2013 15:50 20,3 C 86 % 1015,9 hPa 0,0 mm SO 138 3,2 km/h (1 Bft)
09.08.2013 15:55 20,2 C 84 % 1015,9 hPa 0,0 mm O-SO 121 3,2 km/h (1 Bft)
09.08.2013 16:00 20,3 C 84 % 1016,1 hPa 0,0 mm S-SO 151 3,2 km/h (1 Bft)
09.08.2013 16:05 20,3 C 82 % 1016,2 hPa 0,0 mm S-SO 164 4,8 km/h (1 Bft)
09.08.2013 16:10 20,3 C 84 % 1016,2 hPa 0,0 mm S-SO 164 4,8 km/h (1 Bft)
09.08.2013 16:15 20,8 C 83 % 1016,2 hPa 0,0 mm W 267 6,4 km/h (2 Bft)
09.08.2013 16:20 21,2 C 81 % 1016,2 hPa 0,0 mm W-NW 290 9,7 km/h (2 Bft)
09.08.2013 16:25 21,2 C 80 % 1016,3 hPa 0,0 mm W-SW 257 14,5 km/h (3 Bft)
09.08.2013 16:30 20,9 C 82 % 1016,3 hPa 0,0 mm W 261 16,1 km/h (3 Bft)
09.08.2013 16:35 20,7 C 84 % 1016,3 hPa 0,0 mm W 261 14,5 km/h (3 Bft)
09.08.2013 16:40 20,4 C 84 % 1016,4 hPa 0,0 mm W 273 16,1 km/h (3 Bft)
09.08.2013 16:45 20,3 C 84 % 1016,5 hPa 0,0 mm W 273 12,9 km/h (3 Bft)
09.08.2013 16:50 20,2 C 85 % 1016,6 hPa 0,0 mm W 262 16,1 km/h (3 Bft)
09.08.2013 16:55 20,2 C 84 % 1016,5 hPa 0,0 mm W-SW 246 11,3 km/h (2 Bft)
09.08.2013 17:00 20,3 C 85 % 1016,5 hPa 0,0 mm W 269 8,0 km/h (2 Bft)
09.08.2013 17:05 20,3 C 85 % 1016,5 hPa 0,0 mm W 266 14,5 km/h (3 Bft)
09.08.2013 17:10 20,0 C 84 % 1016,4 hPa 0,0 mm W 273 16,1 km/h (3 Bft)
09.08.2013 17:15 19,9 C 84 % 1016,4 hPa 0,0 mm W-SW 253 12,9 km/h (3 Bft)
09.08.2013 17:20 19,8 C 84 % 1016,5 hPa 0,0 mm W 281 14,5 km/h (3 Bft)
09.08.2013 17:25 19,7 C 84 % 1016,5 hPa 0,0 mm W 264 20,9 km/h (4 Bft)
09.08.2013 17:30 19,6 C 84 % 1016,5 hPa 0,0 mm W-NW 285 14,5 km/h (3 Bft)
09.08.2013 17:35 19,7 C 84 % 1016,6 hPa 0,0 mm W 278 11,3 km/h (2 Bft)
09.08.2013 17:40 19,6 C 84 % 1016,6 hPa 0,0 mm W 281 12,9 km/h (3 Bft)
09.08.2013 17:45 19,6 C 84 % 1016,8 hPa 0,0 mm W 274 14,5 km/h (3 Bft)
09.08.2013 17:50 19,6 C 84 % 1016,8 hPa 0,0 mm W 265 12,9 km/h (3 Bft)
09.08.2013 17:55 19,6 C 85 % 1016,8 hPa 0,0 mm W-SW 248 16,1 km/h (3 Bft)
09.08.2013 18:00 19,6 C 85 % 1016,9 hPa 0,0 mm W-NW 282 12,9 km/h (3 Bft)
09.08.2013 18:05 19,5 C 84 % 1016,8 hPa 0,0 mm W 279 12,9 km/h (3 Bft)
09.08.2013 18:10 19,4 C 85 % 1016,8 hPa 0,0 mm W 271 12,9 km/h (3 Bft)
09.08.2013 18:15 19,3 C 85 % 1016,9 hPa 0,0 mm W 281 17,7 km/h (3 Bft)
09.08.2013 18:20 19,2 C 85 % 1016,9 hPa 0,0 mm W 266 12,9 km/h (3 Bft)
09.08.2013 18:25 19,1 C 86 % 1016,9 hPa 0,0 mm W 261 12,9 km/h (3 Bft)
09.08.2013 18:30 18,9 C 87 % 1016,9 hPa 0,0 mm W 281 12,9 km/h (3 Bft)
09.08.2013 18:35 18,7 C 87 % 1017,0 hPa 0,0 mm W 273 14,5 km/h (3 Bft)
09.08.2013 18:40 18,6 C 88 % 1016,9 hPa 0,0 mm W-NW 284 9,7 km/h (2 Bft)
09.08.2013 18:45 18,6 C 88 % 1017,0 hPa 0,0 mm W-NW 287 9,7 km/h (2 Bft)
09.08.2013 18:50 18,4 C 89 % 1016,9 hPa 0,0 mm W 263 8,0 km/h (2 Bft)
09.08.2013 18:55 18,2 C 89 % 1016,9 hPa 0,4 mm W 263 8,0 km/h (2 Bft)
09.08.2013 19:00 17,9 C 90 % 1017,4 hPa 0,4 mm W 278 11,3 km/h (2 Bft)
09.08.2013 19:05 17,4 C 89 % 1017,6 hPa 0,4 mm W 262 24,1 km/h (4 Bft)
09.08.2013 19:10 16,9 C 88 % 1017,7 hPa 0,0 mm W 259 19,3 km/h (3 Bft)
09.08.2013 19:15 16,6 C 89 % 1017,8 hPa 0,2 mm W 261 17,7 km/h (3 Bft)
09.08.2013 19:20 16,4 C 90 % 1018,2 hPa 0,0 mm W-NW 292 16,1 km/h (3 Bft)
09.08.2013 19:25 16,3 C 90 % 1018,4 hPa 0,2 mm W-NW 297 17,7 km/h (3 Bft)
09.08.2013 19:30 16,1 C 91 % 1018,4 hPa 0,4 mm W 269 12,9 km/h (3 Bft)
09.08.2013 19:35 16,0 C 91 % 1018,3 hPa 0,4 mm W-NW 285 6,4 km/h (2 Bft)
09.08.2013 19:40 16,1 C 92 % 1018,2 hPa 0,2 mm W 275 8,0 km/h (2 Bft)
09.08.2013 19:45 16,1 C 92 % 1018,3 hPa 0,2 mm W 265 8,0 km/h (2 Bft)
09.08.2013 19:50 16,1 C 92 % 1018,3 hPa 0,2 mm W-NW 285 9,7 km/h (2 Bft)
09.08.2013 19:55 15,9 C 92 % 1018,5 hPa 0,0 mm W-NW 288 8,0 km/h (2 Bft)
09.08.2013 20:00 15,9 C 92 % 1018,6 hPa 0,0 mm W-NW 289 6,4 km/h (2 Bft)
09.08.2013 20:05 15,9 C 92 % 1018,7 hPa 0,0 mm W-NW 288 6,4 km/h (2 Bft)
09.08.2013 20:10 15,9 C 92 % 1018,7 hPa 0,2 mm W-NW 292 6,4 km/h (2 Bft)
09.08.2013 20:15 15,9 C 92 % 1018,9 hPa 0,4 mm W 276 4,8 km/h (1 Bft)
09.08.2013 20:20 15,9 C 93 % 1018,9 hPa 1,6 mm W 275 8,0 km/h (2 Bft)
09.08.2013 20:25 15,9 C 93 % 1019,0 hPa 0,4 mm W 270 4,8 km/h (1 Bft)
09.08.2013 20:30 15,9 C 93 % 1019,2 hPa 0,0 mm W 273 4,8 km/h (1 Bft)
09.08.2013 20:35 16,0 C 93 % 1019,3 hPa 0,0 mm W 280 8,0 km/h (2 Bft)
09.08.2013 20:40 16,1 C 93 % 1019,3 hPa 0,0 mm W 274 8,0 km/h (2 Bft)
09.08.2013 20:45 16,1 C 93 % 1019,2 hPa 0,0 mm W 269 6,4 km/h (2 Bft)
09.08.2013 20:50 16,1 C 93 % 1019,2 hPa 0,2 mm W 261 6,4 km/h (2 Bft)
09.08.2013 20:55 16,1 C 93 % 1019,4 hPa 0,2 mm W 277 4,8 km/h (1 Bft)
09.08.2013 21:00 16,1 C 93 % 1019,4 hPa 0,0 mm W 267 6,4 km/h (2 Bft)
09.08.2013 21:05 16,2 C 93 % 1019,5 hPa 0,0 mm W-NW 283 9,7 km/h (2 Bft)
09.08.2013 21:10 16,2 C 93 % 1019,5 hPa 0,0 mm W 281 8,0 km/h (2 Bft)
09.08.2013 21:15 16,2 C 93 % 1019,5 hPa 0,0 mm W 271 11,3 km/h (2 Bft)
09.08.2013 21:20 16,2 C 93 % 1019,6 hPa 0,2 mm W 269 8,0 km/h (2 Bft)
09.08.2013 21:25 16,2 C 93 % 1019,8 hPa 0,0 mm W 273 9,7 km/h (2 Bft)
09.08.2013 21:30 16,2 C 93 % 1019,7 hPa 0,0 mm W 265 14,5 km/h (3 Bft)
09.08.2013 21:35 16,1 C 93 % 1019,9 hPa 0,0 mm W-SW 248 12,9 km/h (3 Bft)
09.08.2013 21:40 16,1 C 92 % 1020,0 hPa 0,2 mm W 268 20,9 km/h (4 Bft)
09.08.2013 21:45 15,9 C 92 % 1020,2 hPa 0,0 mm W 259 20,9 km/h (4 Bft)
09.08.2013 21:50 15,8 C 92 % 1020,1 hPa 0,2 mm W 267 14,5 km/h (3 Bft)
09.08.2013 21:55 15,7 C 92 % 1020,3 hPa 0,0 mm W 265 9,7 km/h (2 Bft)
09.08.2013 22:00 15,6 C 92 % 1020,5 hPa 0,0 mm W 272 9,7 km/h (2 Bft)
09.08.2013 22:05 15,6 C 92 % 1020,4 hPa 0,0 mm W 272 12,9 km/h (3 Bft)
09.08.2013 22:10 15,6 C 92 % 1020,4 hPa 0,0 mm W 277 8,0 km/h (2 Bft)
09.08.2013 22:15 15,5 C 92 % 1020,4 hPa 0,0 mm W 272 14,5 km/h (3 Bft)
09.08.2013 22:20 15,4 C 92 % 1020,5 hPa 0,0 mm W 262 9,7 km/h (2 Bft)
09.08.2013 22:25 15,4 C 92 % 1020,7 hPa 0,0 mm W 271 9,7 km/h (2 Bft)
09.08.2013 22:30 15,4 C 92 % 1020,6 hPa 0,0 mm W 265 12,9 km/h (3 Bft)
09.08.2013 22:35 15,3 C 92 % 1020,6 hPa 0,0 mm W-NW 288 14,5 km/h (3 Bft)
09.08.2013 22:40 15,3 C 92 % 1020,6 hPa 0,0 mm W 262 14,5 km/h (3 Bft)
09.08.2013 22:45 15,2 C 92 % 1020,8 hPa 0,0 mm W 277 11,3 km/h (2 Bft)
09.08.2013 22:50 15,2 C 92 % 1020,9 hPa 0,0 mm W 281 11,3 km/h (2 Bft)
09.08.2013 22:55 15,2 C 92 % 1020,9 hPa 0,0 mm W 277 11,3 km/h (2 Bft)
09.08.2013 23:00 15,2 C 92 % 1020,9 hPa 0,0 mm W 263 11,3 km/h (2 Bft)
09.08.2013 23:05 15,1 C 92 % 1020,9 hPa 0,0 mm W 270 9,7 km/h (2 Bft)
09.08.2013 23:10 15,1 C 92 % 1020,9 hPa 0,0 mm W-NW 285 9,7 km/h (2 Bft)
09.08.2013 23:15 15,1 C 92 % 1020,9 hPa 0,0 mm W 266 8,0 km/h (2 Bft)
09.08.2013 23:20 15,1 C 92 % 1021,0 hPa 0,0 mm W 269 8,0 km/h (2 Bft)
09.08.2013 23:25 15,1 C 92 % 1021,0 hPa 0,0 mm W 267 6,4 km/h (2 Bft)
09.08.2013 23:30 15,1 C 92 % 1020,9 hPa 0,0 mm W-NW 288 8,0 km/h (2 Bft)
09.08.2013 23:35 15,0 C 92 % 1020,9 hPa 0,0 mm W 281 8,0 km/h (2 Bft)
09.08.2013 23:40 15,0 C 92 % 1020,9 hPa 0,0 mm W 267 11,3 km/h (2 Bft)
09.08.2013 23:45 15,0 C 92 % 1021,0 hPa 0,0 mm W 278 9,7 km/h (2 Bft)
09.08.2013 23:50 15,0 C 93 % 1020,8 hPa 0,0 mm W-SW 243 6,4 km/h (2 Bft)
09.08.2013 23:55 15,0 C 92 % 1020,8 hPa 0,0 mm W-SW 252 8,0 km/h (2 Bft)
_ Min-Zeit 23:35 16:25 14:35 - - - 00:05
Minimum _ 15,0 C 80 % 1015,4 hPa - - - 0,0 km/h (0 Bft)
_ Max-Zeit 16:25 20:20 23:20 20:20 - - 19:05
Maximum _ 21,3 C 93 % 1021,0 hPa 1,6 mm - - 24,1 km/h
W-SW (4 Bft)
Durchschnitt _ 18,9 C 88 % 1017,4 hPa #7,8 mm W - 6,5 km/h (2 Bft)